Regional Weather Roundup
Issued by NWS

Home | Current Version | Previous Version | Text Only | Print | Product List | Glossary Off
Versions: 1 2 3 4 5 6 7 8 9 10 11 12 13 14 15 16 17 18 19 20 21 22 23 24 25 26 27 28 29 30 31 32 33 34 35 36 37 38 39 40 41 42 43 44 45 46 47 48 49 50

000
ASUS43 KDTX 201210
RWRMI
MICHIGAN HOURLY REGIONAL WEATHER ROUNDUP
NATIONAL WEATHER SERVICE DETROIT/PONTIAC MI
700 AM EST FRI JAN 20 2017

NOTE: "FAIR" INDICATES FEW OR NO CLOUDS BELOW 12,000 FEET WITH NO
SIGNIFICANT WEATHER AND/OR OBSTRUCTION TO VISIBILITY.

MIZ047>049-052>055-059>063-066>070-074>076-081>083-201300-
SOUTHEAST LOWER MICHIGAN

CITY           SKY/WX    TMP DP  RH WIND       PRES   REMARKS
ADRIAN         LGT RAIN  33  33 100 E10       29.65F FOG     WCI  25
6HR MIN TEMP:  32; 6HR MAX TEMP:  33; 6HR PCP:  0.14;

ALMA           CLOUDY    32  32 100 NE8       29.70F FOG     WCI  25
ANN ARBOR      LGT RAIN  33  33 100 NE8       29.65F FOG     WCI  26
BAD AXE        FOG       32  32 100 E5        29.75F VSB 1/2 WCI  27
6HR MIN TEMP:  30; 6HR MAX TEMP:  32;

CARO           CLOUDY    32  32  99 E5        29.72F FOG     WCI  27
DETROIT CITY   CLOUDY    33  33 100 E13       29.70F FOG     WCI  24
6HR MIN TEMP:  32; 6HR MAX TEMP:  33;

DETROIT        RAIN      34  33  96 E10       29.68F FOG     WCI  26
6HR MIN TEMP:  33; 6HR MAX TEMP:  34; 6HR PCP:  0.02;

FLINT          CLOUDY    33  31  92 E8        29.69F WCI  26
6HR MIN TEMP:  31; 6HR MAX TEMP:  33;

GROSSE ILE     LGT RAIN  33  33  98 E6        29.67F WCI  28
6HR MIN TEMP:  32; 6HR MAX TEMP:  33; 6HR PCP:  0.01;

HILLSDALE      MIX PCPN  32  32 100 E9        29.62S WCI  24
HOWELL         CLOUDY    33  32  95 E8        29.65F FOG     WCI  26

CITY           SKY/WX    TMP DP  RH WIND       PRES   REMARKS
JACKSON        LGT RAIN  35  33  92 SE7       29.65R FOG     WCI  29
6HR MIN TEMP:  34; 6HR MAX TEMP:  35; 6HR PCP: TRACE;

LAMBERTVILLE   LGT SNOW  35  34  94 E9        29.66R WCI  28
6HR MIN TEMP:  33; 6HR MAX TEMP:  35;

LANSING        LGT RAIN  34  32  92 NE6       29.67F FOG     WCI  29
6HR MIN TEMP:  34; 6HR MAX TEMP:  35; 6HR PCP:  0.02;

LAPEER         CLOUDY    32  32 100 E6        29.71F FOG     WCI  26
6HR MIN TEMP:  32; 6HR MAX TEMP:  32;

MASON          LGT RAIN  33  33  99 NE9       29.64F WCI  26
MONROE         LGT RAIN  35  35 100 E7        29.66S WCI  29
6HR MIN TEMP:  32; 6HR MAX TEMP:  35; 6HR PCP:  0.04;

MT. CLEMENS    CLOUDY    33  33 100 NE10      29.69F WCI  25
6HR MIN TEMP:  32; 6HR MAX TEMP:  33;

PONTIAC        FOG       32  30  92 E10       29.66F VSB 1   WCI  24
6HR MIN TEMP:  31; 6HR MAX TEMP:  32;

PORT HOPE        N/A     33  33 100 SE10      29.76S WCI  25
6HR MIN TEMP:  31; 6HR MAX TEMP:  33;

PORT HURON     CLOUDY    32  32 100 NE6       29.73F FOG     WCI  26
TRI CITIES     FOG       31  31 100 NE13      29.72F VSB 1/4 WCI  21
6HR MIN TEMP:  31; 6HR MAX TEMP:  32;

MIDLAND        FOG       32  31  97 NE8       29.73F VSB 1/2 WCI  25
6HR MIN TEMP:  32; 6HR MAX TEMP:  32;

TROY           CLOUDY    33  32  96 E10       29.71F FOG     WCI  25
SAGINAW HB     CLOUDY    32  32 100 NE9       29.71F FOG     WCI  24
$$
MIZ043>046-050>051-056>058-064>065-071>073-077>080-201300-
SOUTHWEST LOWER MICHIGAN

CITY           SKY/WX    TMP DP  RH WIND       PRES   REMARKS
BATTLE CREEK   LGT RAIN  36  35  96 NE5       29.65R FOG     WCI  32
6HR MIN TEMP:  36; 6HR MAX TEMP:  37; 6HR PCP:  0.22;

BENTON HARBOR  LGT RAIN  39  36  89 NE6       29.63F FOG     WCI  35
6HR MIN TEMP:  38; 6HR MAX TEMP:  39; 6HR PCP:  0.43;

BIG RAPIDS     CLOUDY    33  31  96 E3        29.70S FOG
6HR MIN TEMP:  33; 6HR MAX TEMP:  34;

COLDWATER      LGT RAIN  36  36 100 E6        29.62S WCI  31
6HR MIN TEMP:  36; 6HR MAX TEMP:  38;

FREMONT        LGT RAIN  34  34 100 CALM      29.69F
HOLLAND        LGT RAIN  36  34  92 NE7       29.67S WCI  30
6HR MIN TEMP:  36; 6HR MAX TEMP:  37; 6HR PCP:  0.28;

GRAND RAPIDS   LGT RAIN  34  32  92 NE5       29.68S FOG     WCI  30
6HR MIN TEMP:  34; 6HR MAX TEMP:  36; 6HR PCP:  0.11;

IONIA          MIX PCPN  32  32 100 NE8       29.66F WCI  25
6HR MIN TEMP:  32; 6HR MAX TEMP:  33;

KALAMAZOO      LGT RAIN  37  34  89 NE6       29.65S FOG     WCI  32
6HR MIN TEMP:  37; 6HR MAX TEMP:  38; 6HR PCP:  0.35;

LUDINGTON      CLOUDY    34  34 100 CALM      29.70S FOG
6HR MIN TEMP:  33; 6HR MAX TEMP:  36;

MARSHALL       LGT RAIN  35  35  98 CALM      29.64R
6HR MIN TEMP:  35; 6HR MAX TEMP:  36; 6HR PCP:  0.14;

MOUNT PLEASANT CLOUDY    32  31  99 NE7       29.71F FOG     WCI  25
6HR MIN TEMP:  32; 6HR MAX TEMP:  32;

MUSKEGON       LGT RAIN  36  34  92 NE6       29.69F FOG     WCI  31
6HR MIN TEMP:  36; 6HR MAX TEMP:  39; 6HR PCP:  0.22;

SOUTH HAVEN    MIX PCPN  37  37  99 NE7       29.64F WCI  31
$$
MIZ016>042-201300-
NORTHERN LOWER MICHIGAN

CITY           SKY/WX    TMP DP  RH WIND       PRES   REMARKS
ALPENA         FOG       32  31  96 SE8       29.77F VSB 1/2 WCI  25
6HR MIN TEMP:  31; 6HR MAX TEMP:  33;

BEAVER ISLAND  SNOW      32  32 100 E8        29.74F VSB 1/4 WCI  25
6HR MIN TEMP:  32; 6HR MAX TEMP:  34;

BELLAIRE       CLOUDY    31  31  99 CALM      29.73R FOG
6HR MIN TEMP:  28; 6HR MAX TEMP:  32;

CADILLAC       CLOUDY    33  32  96 E5        29.69S FOG     WCI  28
CHARLEVOIX     MOCLDY    31  31 100 E3        29.75S FOG
FRANKFORT      CLOUDY    34  33  97 NE3       29.72R FOG
GAYLORD        CLOUDY    32  28  85 CALM      29.71F FOG
6HR MIN TEMP:  32; 6HR MAX TEMP:  33;

GRAYLING       CLOUDY    32  32  99 E6        29.73R FOG     WCI  26
HARBOR SPRINGS FOG       31  31 100 NE10      29.74F VSB 3/4 WCI  22
HOUGHTON LAKE  CLOUDY    31  30  96 E5        29.73R FOG     WCI  26
6HR MIN TEMP:  31; 6HR MAX TEMP:  32;

MANISTEE       MOCLDY    34  32  92 E6        29.72R FOG     WCI  29
OSCODA         FOG       34  33  97 E6        29.77S VSB 1/2 WCI  29
6HR MIN TEMP:  32; 6HR MAX TEMP:  34;

PELLSTON       FOG       32  30  92 E6        29.75F VSB 1/4 WCI  26
6HR MIN TEMP:  32; 6HR MAX TEMP:  34;

ROGERS CITY    FOG       32  31  96 SE7       29.78F VSB 1/2 WCI  26
TRAVERSE CITY  CLOUDY    33  31  92 CALM      29.71S FOG
6HR MIN TEMP:  32; 6HR MAX TEMP:  34;

$$
MIZ007>008-015-201300-
EASTERN UPPER MICHIGAN

CITY           SKY/WX    TMP DP  RH WIND       PRES   REMARKS
KINROSS        MIX PCPN  32  32 100 E8        29.76F FOG     WCI  25
6HR MIN TEMP:  32; 6HR MAX TEMP:  33; 6HR PCP: TRACE;

MACKINAC ISLAN FOG       32  32 100 E13       29.75S VSB 1/4 WCI  22
6HR MIN TEMP:  32; 6HR MAX TEMP:  33;

NEWBERRY       FOG       32  31  97 E7        29.74S VSB 1/2 WCI  25
6HR MIN TEMP:  31; 6HR MAX TEMP:  33;

S. S. MARIE    FOG       34  33  96 E6        29.76F VSB 1/2 WCI  29
6HR MIN TEMP:  33; 6HR MAX TEMP:  34;

MUNISING         N/A     34  34 100 S5        29.72S WCI  30
6HR MIN TEMP:  31; 6HR MAX TEMP:  34;

$$
MIZ004>006-011>014-085-201300-
CENTRAL UPPER MICHIGAN

CITY           SKY/WX    TMP DP  RH WIND       PRES   REMARKS
MANISTIQUE     FOG       32  32  99 E6        29.74S VSB 1/2 WCI  26
6HR MIN TEMP:  32; 6HR MAX TEMP:  34;

ESCANABA       FOG       32  32 100 CALM      29.74R VSB 1/4
6HR MIN TEMP:  31; 6HR MAX TEMP:  32;

SAWYER-GWINN   FOG       27  27 100 SW6       29.70F VSB 3/4 WCI  20
$$
MIZ001>003-009>011-084-201300-
WESTERN UPPER MICHIGAN

CITY           SKY/WX    TMP DP  RH WIND       PRES   REMARKS
IRON MOUNTAIN  FOG       30  27  88 CALM      29.70S VSB 1
6HR MIN TEMP:  30; 6HR MAX TEMP:  30;

HOUGHTON       CLOUDY    23  21  92 CALM      29.68S
6HR MIN TEMP:  21; 6HR MAX TEMP:  32;

COPPER HARBOR    N/A     32  30  92 SW7       29.70S WCI  26
6HR MIN TEMP:  32; 6HR MAX TEMP:  37;

IRONWOOD       CLOUDY    32  28  85 E5        29.68R WCI  27
6HR MIN TEMP:  29; 6HR MAX TEMP:  34;

$$

ABBREVIATIONS USED IN REMARKS
   TC - TEMPERATURE IN CELSIUS
  WCI - WIND CHILL INDEX
   HX - HEAT INDEX
  VSB - VISIBILITY




USA.gov is the U.S. government's official web portal to all federal, state and local government web resources and services.